Time,TemperatureF,DewpointF,PressureIn,WindDirection,WindDirectionDegrees,WindSpeedMPH,WindSpeedGustMPH,Humidity,HourlyPrecipIn,Conditions,Clouds,dailyrainin,SoftwareType,DateUTC
2013-02-04 00:09:00,20.9,17.0,29.72,SW,219,0.0,0.0,85,0.00,,,0.00,weatherlink.com 1.10,2013-02-04 05:09:00,
2013-02-04 00:24:00,20.4,17.0,29.71,SW,218,0.0,0.0,85,0.00,,,0.00,weatherlink.com 1.10,2013-02-04 05:24:00,
2013-02-04 00:39:00,19.8,16.0,29.71,SW,218,0.0,0.0,86,0.00,,,0.00,weatherlink.com 1.10,2013-02-04 05:39:00,
2013-02-04 00:54:00,19.2,16.0,29.71,WNW,282,0.0,1.0,87,0.00,,,0.00,weatherlink.com 1.10,2013-02-04 05:54:00,
2013-02-04 01:10:00,19.6,15.0,29.71,North,360,0.0,1.0,82,0.00,,,0.00,weatherlink.com 1.10,2013-02-04 06:10:00,
2013-02-04 01:24:00,19.7,15.0,29.71,NW,311,0.0,2.0,80,0.00,,,0.00,weatherlink.com 1.10,2013-02-04 06:24:00,
2013-02-04 01:39:00,19.8,15.0,29.72,NW,309,0.0,0.0,80,0.00,,,0.00,weatherlink.com 1.10,2013-02-04 06:39:00,
2013-02-04 01:54:00,20.3,14.0,29.72,NW,326,1.0,3.0,76,0.00,,,0.00,weatherlink.com 1.10,2013-02-04 06:54:00,
2013-02-04 02:09:00,20.3,14.0,29.72,NNW,333,0.0,2.0,75,0.00,,,0.00,weatherlink.com 1.10,2013-02-04 07:09:00,
2013-02-04 02:25:00,19.9,13.0,29.72,WNW,293,0.0,2.0,75,0.00,,,0.00,weatherlink.com 1.10,2013-02-04 07:25:00,
2013-02-04 02:40:00,20.1,13.0,29.71,WNW,288,1.0,3.0,74,0.00,,,0.00,weatherlink.com 1.10,2013-02-04 07:40:00,
2013-02-04 02:55:00,19.7,13.0,29.71,NW,311,0.0,2.0,74,0.00,,,0.00,weatherlink.com 1.10,2013-02-04 07:55:00,
2013-02-04 03:10:00,19.0,13.0,29.71,NW,325,0.0,2.0,76,0.00,,,0.00,weatherlink.com 1.10,2013-02-04 08:10:00,
2013-02-04 03:25:00,18.7,12.0,29.71,North,352,0.0,1.0,76,0.00,,,0.00,weatherlink.com 1.10,2013-02-04 08:25:00,
2013-02-04 03:40:00,18.4,12.0,29.70,NNW,330,0.0,1.0,76,0.00,,,0.00,weatherlink.com 1.10,2013-02-04 08:40:00,
2013-02-04 03:55:00,18.2,12.0,29.70,NW,325,0.0,1.0,76,0.00,,,0.00,weatherlink.com 1.10,2013-02-04 08:55:00,
2013-02-04 04:10:00,18.0,12.0,29.71,NW,323,0.0,1.0,78,0.00,,,0.00,weatherlink.com 1.10,2013-02-04 09:10:00,
2013-02-04 04:25:00,18.1,12.0,29.71,North,355,0.0,1.0,77,0.00,,,0.00,weatherlink.com 1.10,2013-02-04 09:25:00,
2013-02-04 04:40:00,18.4,12.0,29.71,WNW,293,0.0,3.0,77,0.00,,,0.00,weatherlink.com 1.10,2013-02-04 09:40:00,
2013-02-04 04:55:00,18.7,13.0,29.71,SW,214,0.0,1.0,77,0.00,,,0.00,weatherlink.com 1.10,2013-02-04 09:55:00,
2013-02-04 05:10:00,19.0,13.0,29.72,WNW,289,0.0,2.0,77,0.00,,,0.00,weatherlink.com 1.10,2013-02-04 10:10:00,
2013-02-04 05:25:00,19.1,13.0,29.72,SW,226,0.0,2.0,76,0.00,,,0.00,weatherlink.com 1.10,2013-02-04 10:25:00,
2013-02-04 05:40:00,18.8,13.0,29.73,West,278,1.0,2.0,77,0.00,,,0.00,weatherlink.com 1.10,2013-02-04 10:40:00,
2013-02-04 05:55:00,18.7,12.0,29.73,NNW,348,0.0,2.0,76,0.00,,,0.00,weatherlink.com 1.10,2013-02-04 10:55:00,
2013-02-04 06:10:00,18.7,12.0,29.74,North,352,0.0,6.0,76,0.00,,,0.00,weatherlink.com 1.10,2013-02-04 11:10:00,
2013-02-04 06:25:00,18.6,12.0,29.74,North,349,0.0,4.0,76,0.00,,,0.00,weatherlink.com 1.10,2013-02-04 11:25:00,
2013-02-04 06:40:00,18.8,12.0,29.74,North,359,2.0,5.0,75,0.00,,,0.00,weatherlink.com 1.10,2013-02-04 11:40:00,
2013-02-04 06:55:00,18.2,12.0,29.74,NW,323,1.0,2.0,76,0.00,,,0.00,weatherlink.com 1.10,2013-02-04 11:55:00,
2013-02-04 07:10:00,17.9,12.0,29.75,WNW,291,0.0,5.0,77,0.00,,,0.00,weatherlink.com 1.10,2013-02-04 12:10:00,
2013-02-04 07:25:00,18.3,12.0,29.75,WSW,255,0.0,5.0,76,0.00,,,0.00,weatherlink.com 1.10,2013-02-04 12:25:00,
2013-02-04 07:40:00,18.5,12.0,29.76,NNW,327,0.0,4.0,76,0.00,,,0.00,weatherlink.com 1.10,2013-02-04 12:40:00,
2013-02-04 07:55:00,18.9,12.0,29.76,NNW,342,5.0,6.0,74,0.00,,,0.00,weatherlink.com 1.10,2013-02-04 12:55:00,
2013-02-04 08:10:00,19.6,12.0,29.77,NW,314,3.0,7.0,72,0.00,,,0.00,weatherlink.com 1.10,2013-02-04 13:10:00,
2013-02-04 08:25:00,20.2,12.0,29.77,SW,219,0.0,8.0,70,0.00,,,0.00,weatherlink.com 1.10,2013-02-04 13:25:00,
2013-02-04 08:41:00,20.8,12.0,29.77,NW,308,2.0,11.0,69,0.00,,,0.00,weatherlink.com 1.10,2013-02-04 13:41:00,
2013-02-04 08:56:00,21.3,10.0,29.77,NNW,340,1.0,13.0,62,0.00,,,0.00,weatherlink.com 1.10,2013-02-04 13:56:00,
2013-02-04 09:11:00,21.9,9.0,29.77,NNW,335,4.0,14.0,59,0.00,,,0.00,weatherlink.com 1.10,2013-02-04 14:11:00,
2013-02-04 09:26:00,22.3,9.0,29.77,SSE,162,2.0,13.0,56,0.00,,,0.00,weatherlink.com 1.10,2013-02-04 14:26:00,
2013-02-04 09:41:00,23.4,10.0,29.77,NW,309,3.0,11.0,56,0.00,,,0.00,weatherlink.com 1.10,2013-02-04 14:41:00,
2013-02-04 09:56:00,24.6,10.0,29.77,SE,139,0.0,10.0,55,0.00,,,0.00,weatherlink.com 1.10,2013-02-04 14:56:00,
2013-02-04 10:11:00,24.8,8.0,29.77,West,281,3.0,12.0,50,0.00,,,0.00,weatherlink.com 1.10,2013-02-04 15:11:00,
2013-02-04 10:26:00,25.7,8.0,29.77,WNW,288,2.0,17.0,48,0.00,,,0.00,weatherlink.com 1.10,2013-02-04 15:26:00,
2013-02-04 10:41:00,25.1,7.0,29.77,NNW,342,2.0,19.0,46,0.00,,,0.00,weatherlink.com 1.10,2013-02-04 15:41:00,
2013-02-04 10:57:00,25.9,8.0,29.77,SW,221,5.0,8.0,46,0.00,,,0.00,weatherlink.com 1.10,2013-02-04 15:57:00,
2013-02-04 11:11:00,27.0,8.0,29.76,NNW,346,3.0,13.0,45,0.00,,,0.00,weatherlink.com 1.10,2013-02-04 16:11:00,
2013-02-04 11:26:00,27.4,7.0,29.76,East,83,2.0,9.0,42,0.00,,,0.00,weatherlink.com 1.10,2013-02-04 16:26:00,
2013-02-04 11:41:00,28.3,6.0,29.76,North,8,5.0,15.0,39,0.00,,,0.00,weatherlink.com 1.10,2013-02-04 16:41:00,
2013-02-04 11:56:00,28.3,6.0,29.75,WNW,286,1.0,13.0,38,0.00,,,0.00,weatherlink.com 1.10,2013-02-04 16:56:00,
2013-02-04 12:11:00,27.8,5.0,29.75,North,1,6.0,14.0,38,0.00,,,0.00,weatherlink.com 1.10,2013-02-04 17:11:00,
2013-02-04 12:26:00,27.6,4.0,29.75,NE,44,8.0,15.0,36,0.00,,,0.00,weatherlink.com 1.10,2013-02-04 17:26:00,
2013-02-04 12:41:00,26.2,5.0,29.75,North,1,1.0,13.0,40,0.00,,,0.00,weatherlink.com 1.10,2013-02-04 17:41:00,
2013-02-04 12:56:00,25.7,4.0,29.75,SSW,204,5.0,18.0,40,0.00,,,0.00,weatherlink.com 1.10,2013-02-04 17:56:00,
2013-02-04 13:11:00,25.3,5.0,29.75,WNW,297,2.0,13.0,41,0.00,,,0.00,weatherlink.com 1.10,2013-02-04 18:11:00,
2013-02-04 13:26:00,26.5,6.0,29.75,WNW,300,2.0,7.0,41,0.00,,,0.00,weatherlink.com 1.10,2013-02-04 18:26:00,
2013-02-04 13:41:00,28.9,6.0,29.75,NNW,328,3.0,9.0,38,0.00,,,0.00,weatherlink.com 1.10,2013-02-04 18:41:00,
2013-02-04 13:56:00,26.5,6.0,29.75,WSW,238,3.0,7.0,41,0.00,,,0.00,weatherlink.com 1.10,2013-02-04 18:56:00,
2013-02-04 14:11:00,26.7,6.0,29.75,SW,235,2.0,16.0,41,0.00,,,0.00,weatherlink.com 1.10,2013-02-04 19:11:00,
2013-02-04 14:26:00,26.6,6.0,29.75,WNW,297,1.0,11.0,41,0.00,,,0.00,weatherlink.com 1.10,2013-02-04 19:26:00,
2013-02-04 14:41:00,27.6,7.0,29.75,SW,231,4.0,16.0,41,0.00,,,0.00,weatherlink.com 1.10,2013-02-04 19:41:00,
2013-02-04 14:56:00,29.2,5.0,29.75,NE,42,1.0,11.0,35,0.00,,,0.00,weatherlink.com 1.10,2013-02-04 19:56:00,
2013-02-04 15:11:00,29.9,5.0,29.76,WSW,242,3.0,11.0,34,0.00,,,0.00,weatherlink.com 1.10,2013-02-04 20:11:00,
2013-02-04 15:26:00,28.9,2.0,29.77,WSW,238,5.0,14.0,31,0.00,,,0.00,weatherlink.com 1.10,2013-02-04 20:26:00,
2013-02-04 15:41:00,26.1,3.0,29.77,WNW,300,2.0,12.0,37,0.00,,,0.00,weatherlink.com 1.10,2013-02-04 20:41:00,
2013-02-04 15:56:00,25.4,3.0,29.77,WNW,293,2.0,10.0,38,0.00,,,0.00,weatherlink.com 1.10,2013-02-04 20:56:00,
2013-02-04 16:11:00,25.1,4.0,29.78,West,263,1.0,7.0,40,0.00,,,0.00,weatherlink.com 1.10,2013-02-04 21:11:00,
2013-02-04 16:26:00,24.7,3.0,29.78,North,357,3.0,5.0,40,0.00,,,0.00,weatherlink.com 1.10,2013-02-04 21:26:00,
2013-02-04 16:41:00,24.2,2.0,29.79,West,269,3.0,5.0,39,0.00,,,0.00,weatherlink.com 1.10,2013-02-04 21:41:00,
2013-02-04 16:56:00,23.4,2.0,29.80,WNW,297,5.0,7.0,39,0.00,,,0.00,weatherlink.com 1.10,2013-02-04 21:56:00,
2013-02-04 17:11:00,22.9,2.0,29.80,NNE,20,1.0,9.0,40,0.00,,,0.00,weatherlink.com 1.10,2013-02-04 22:11:00,
2013-02-04 17:27:00,22.4,2.0,29.81,ENE,72,1.0,8.0,42,0.00,,,0.00,weatherlink.com 1.10,2013-02-04 22:27:00,
2013-02-04 17:42:00,22.1,4.0,29.81,East,94,1.0,20.0,45,0.00,,,0.00,weatherlink.com 1.10,2013-02-04 22:42:00,
2013-02-04 17:57:00,21.7,3.0,29.82,WSW,249,1.0,5.0,45,0.00,,,0.00,weatherlink.com 1.10,2013-02-04 22:57:00,
2013-02-04 18:12:00,21.5,4.0,29.82,North,11,0.0,6.0,46,0.00,,,0.00,weatherlink.com 1.10,2013-02-04 23:12:00,
2013-02-04 18:27:00,21.1,4.0,29.83,WNW,284,0.0,4.0,48,0.00,,,0.00,weatherlink.com 1.10,2013-02-04 23:27:00,
2013-02-04 18:42:00,20.6,5.0,29.83,West,278,1.0,3.0,50,0.00,,,0.00,weatherlink.com 1.10,2013-02-04 23:42:00,
2013-02-04 18:57:00,20.5,4.0,29.84,North,11,3.0,4.0,48,0.00,,,0.00,weatherlink.com 1.10,2013-02-04 23:57:00,
2013-02-04 19:12:00,20.2,3.0,29.85,North,3,0.0,4.0,48,0.00,,,0.00,weatherlink.com 1.10,2013-02-05 00:12:00,
2013-02-04 19:27:00,20.1,3.0,29.85,NNE,13,0.0,5.0,47,0.00,,,0.00,weatherlink.com 1.10,2013-02-05 00:27:00,
2013-02-04 19:42:00,19.7,3.0,29.85,NW,312,1.0,3.0,48,0.00,,,0.00,weatherlink.com 1.10,2013-02-05 00:42:00,
2013-02-04 19:57:00,19.5,3.0,29.85,East,89,0.0,5.0,49,0.00,,,0.00,weatherlink.com 1.10,2013-02-05 00:57:00,
2013-02-04 20:12:00,19.4,3.0,29.86,SE,143,3.0,6.0,49,0.00,,,0.00,weatherlink.com 1.10,2013-02-05 01:12:00,
2013-02-04 20:27:00,19.4,3.0,29.87,WSW,242,1.0,11.0,49,0.00,,,0.00,weatherlink.com 1.10,2013-02-05 01:27:00,
2013-02-04 20:42:00,19.2,3.0,29.87,NW,310,3.0,5.0,49,0.00,,,0.00,weatherlink.com 1.10,2013-02-05 01:42:00,
2013-02-04 20:57:00,19.1,3.0,29.88,West,271,1.0,5.0,49,0.00,,,0.00,weatherlink.com 1.10,2013-02-05 01:57:00,
2013-02-04 21:12:00,18.7,2.0,29.88,West,276,0.0,7.0,49,0.00,,,0.00,weatherlink.com 1.10,2013-02-05 02:12:00,
2013-02-04 21:27:00,18.3,3.0,29.89,North,359,1.0,4.0,51,0.00,,,0.00,weatherlink.com 1.10,2013-02-05 02:27:00,
2013-02-04 21:42:00,18.1,3.0,29.89,SSW,195,1.0,4.0,51,0.00,,,0.00,weatherlink.com 1.10,2013-02-05 02:42:00,
2013-02-04 21:57:00,17.8,2.0,29.89,SE,135,0.0,3.0,51,0.00,,,0.00,weatherlink.com 1.10,2013-02-05 02:57:00,
2013-02-04 22:12:00,17.5,3.0,29.90,West,271,0.0,2.0,52,0.00,,,0.00,weatherlink.com 1.10,2013-02-05 03:12:00,
2013-02-04 22:27:00,17.2,2.0,29.89,NNE,18,2.0,6.0,52,0.00,,,0.00,weatherlink.com 1.10,2013-02-05 03:27:00,
2013-02-04 22:42:00,16.9,2.0,29.90,WSW,256,1.0,4.0,53,0.00,,,0.00,weatherlink.com 1.10,2013-02-05 03:42:00,
2013-02-04 22:57:00,16.9,2.0,29.90,WNW,300,1.0,3.0,53,0.00,,,0.00,weatherlink.com 1.10,2013-02-05 03:57:00,
2013-02-04 23:12:00,16.8,3.0,29.90,ENE,67,0.0,4.0,54,0.00,,,0.00,weatherlink.com 1.10,2013-02-05 04:12:00,
2013-02-04 23:27:00,16.3,2.0,29.91,West,263,0.0,1.0,54,0.00,,,0.00,weatherlink.com 1.10,2013-02-05 04:27:00,
2013-02-04 23:42:00,15.9,3.0,29.90,West,266,0.0,4.0,56,0.00,,,0.00,weatherlink.com 1.10,2013-02-05 04:42:00,
2013-02-04 23:57:00,15.8,3.0,29.90,North,352,1.0,4.0,57,0.00,,,0.00,weatherlink.com 1.10,2013-02-05 04:57:00,